,,,PA_Meas_PMT16A,,PR_Meas_QMR101_102,,RH_Meas_QMH101,,SR_Meas_QMS101,,TA_Meas_QMH101,,GenWind,,GenWind,
date,time,status,PA,status,PR,status,RH,status,SR,status,TA,status,DirAvg,status,SpdAvg,
2009-04-04, 00:00:04,VALID,1010.55,VALID,0,VALID,85.6372,VALID,0,VALID,22.642,VALID,119,VALID,2.20742,
2009-04-04, 00:01:04,VALID,1010.5,VALID,0,VALID,85.6372,VALID,0,VALID,22.5835,VALID,133,VALID,2.48125,
2009-04-04, 00:02:04,VALID,1010.47,VALID,0,VALID,85.6448,VALID,0,VALID,22.5835,VALID,115,VALID,3.29219,
2009-04-04, 00:03:04,VALID,1010.37,VALID,0,VALID,85.6525,VALID,0,VALID,22.6614,VALID,121,VALID,3.51445,
2009-04-04, 00:04:04,VALID,1010.42,VALID,0,VALID,85.6525,VALID,0,VALID,22.6809,VALID,133,VALID,3.05117,
2009-04-04, 00:05:04,VALID,1010.45,VALID,0,VALID,85.6601,VALID,0,VALID,22.7199,VALID,124,VALID,2.1793,
2009-04-04, 00:06:04,VALID,1010.38,VALID,0,VALID,85.6753,VALID,0,VALID,22.7004,VALID,146,VALID,2.21953,
2009-04-04, 00:07:04,VALID,1010.37,VALID,0,VALID,85.6677,VALID,0,VALID,22.6809,VALID,138,VALID,1.41719,
2009-04-04, 00:08:04,VALID,1010.3,VALID,0,VALID,85.6601,VALID,0,VALID,22.7199,VALID,143,VALID,2.56992,
2009-04-04, 00:09:04,VALID,1010.31,VALID,0,VALID,85.6601,VALID,0,VALID,22.7783,VALID,187,VALID,1.54492,
2009-04-04, 00:10:04,VALID,1010.35,VALID,0,VALID,85.6601,VALID,0,VALID,22.7588,VALID,164,VALID,1.81094,
2009-04-04, 00:11:04,VALID,1010.42,VALID,0,VALID,85.6525,VALID,0,VALID,22.7783,VALID,123,VALID,1.55391,
2009-04-04, 00:12:04,VALID,1010.46,VALID,0,VALID,85.6525,VALID,0,VALID,22.7394,VALID,101,VALID,2.54102,
2009-04-04, 00:13:04,VALID,1010.47,VALID,0.5,VALID,85.6601,VALID,0,VALID,22.7783,VALID,126,VALID,0.152734,
2009-04-04, 00:14:04,VALID,1010.51,VALID,0,VALID,85.6448,VALID,0,VALID,22.7394,VALID,187,VALID,1.78047,
2009-04-04, 00:15:04,VALID,1010.51,VALID,0,VALID,85.6677,VALID,0,VALID,22.642,VALID,171,VALID,1.83516,
2009-04-04, 00:16:04,VALID,1010.5,VALID,0.5,VALID,85.7058,VALID,0,VALID,22.5835,VALID,90,VALID,0.566406,
2009-04-04, 00:17:04,VALID,1010.48,VALID,0,VALID,85.683,VALID,0,VALID,22.6225,VALID,99,VALID,0.81875,
2009-04-04, 00:18:04,VALID,1010.41,VALID,0,VALID,85.6906,VALID,0,VALID,22.6225,VALID,342,VALID,0.432422,
2009-04-04, 00:19:04,VALID,1010.34,VALID,0.5,VALID,85.6753,VALID,0,VALID,22.5835,VALID,83,VALID,1.32617,
2009-04-04, 00:20:04,VALID,1010.27,VALID,0,VALID,85.7058,VALID,0,VALID,22.5056,VALID,73,VALID,1.40195,
2009-04-04, 00:21:04,VALID,1010.18,VALID,0.5,VALID,85.6982,VALID,0,VALID,22.5056,VALID,79,VALID,0.498437,
2009-04-04, 00:22:04,VALID,1010.13,VALID,0,VALID,85.7058,VALID,0,VALID,22.5251,VALID,93,VALID,0.782031,
2009-04-04, 00:23:04,VALID,1010.07,VALID,0,VALID,85.7135,VALID,0,VALID,22.4861,VALID,98,VALID,0.601563,
2009-04-04, 00:24:04,VALID,1010.03,VALID,0.5,VALID,85.7058,VALID,0,VALID,22.4667,VALID,195,VALID,0.636328,
2009-04-04, 00:25:04,VALID,1010.05,VALID,0,VALID,85.7058,VALID,0,VALID,22.4277,VALID,175,VALID,0.607422,
2009-04-04, 00:26:04,VALID,1010.05,VALID,0.5,VALID,85.7058,VALID,0,VALID,22.4844,VALID,221,VALID,1.18164,
2009-04-04, 00:27:04,VALID,1010.02,VALID,0,VALID,85.7135,VALID,0,VALID,22.5251,VALID,199,VALID,1.43594,
2009-04-04, 00:28:04,VALID,1009.94,VALID,0.5,VALID,85.7135,VALID,0,VALID,22.465,VALID,224,VALID,2.02227,
2009-04-04, 00:29:04,VALID,1009.84,VALID,0,VALID,85.7135,VALID,0,VALID,22.4861,VALID,222,VALID,1.63359,
2009-04-04, 00:30:04,VALID,1009.77,VALID,0,VALID,85.7211,VALID,0,VALID,22.4861,VALID,222,VALID,2.07227,
2009-04-04, 00:31:05,VALID,1009.7,VALID,0.5,VALID,85.7135,VALID,0,VALID,22.4844,VALID,235,VALID,2.24258,
2009-04-04, 00:32:05,VALID,1009.68,VALID,0,VALID,85.7363,VALID,0,VALID,22.5056,VALID,229,VALID,1.74883,
2009-04-04, 00:33:05,VALID,1009.62,VALID,0,VALID,85.7135,VALID,0,VALID,22.465,VALID,234,VALID,1.42227,
2009-04-04, 00:34:05,VALID,1009.55,VALID,0.5,VALID,85.7135,VALID,0.105969,VALID,22.465,VALID,234,VALID,0.853125,
2009-04-04, 00:35:05,VALID,1009.49,VALID,0,VALID,85.7287,VALID,0,VALID,22.4844,VALID,274,VALID,0.437891,
2009-04-04, 00:36:05,VALID,1009.4,VALID,0,VALID,85.7058,VALID,0.105969,VALID,22.5056,VALID,304,VALID,0.938281,
2009-04-04, 00:37:05,VALID,1009.35,VALID,0,VALID,85.7211,VALID,0,VALID,22.5039,VALID,276,VALID,0.4875,
2009-04-04, 00:38:05,VALID,1009.31,VALID,0,VALID,85.7363,VALID,0,VALID,22.5251,VALID,264,VALID,0.638281,
2009-04-04, 00:39:05,VALID,1009.29,VALID,0.5,VALID,85.6982,VALID,0,VALID,22.5039,VALID,262,VALID,0.0914062,
2009-04-04, 00:40:05,VALID,1009.37,VALID,0,VALID,85.7135,VALID,0,VALID,22.4844,VALID,124,VALID,0.496094,
2009-04-04, 00:41:05,VALID,1009.43,VALID,0,VALID,85.7135,VALID,0.105969,VALID,22.5234,VALID,115,VALID,1.1957,
2009-04-04, 00:42:05,VALID,1009.49,VALID,0.5,VALID,85.7211,VALID,0,VALID,22.6208,VALID,92,VALID,1.45781,
2009-04-04, 00:43:05,VALID,1009.48,VALID,0,VALID,85.7135,VALID,0,VALID,22.6225,VALID,76,VALID,0.864062,
2009-04-04, 00:44:05,VALID,1009.48,VALID,0,VALID,85.7135,VALID,0.105969,VALID,22.6402,VALID,336,VALID,0.910547,
2009-04-04, 00:45:05,VALID,1009.43,VALID,0,VALID,85.7058,VALID,0,VALID,22.603,VALID,318,VALID,1.04062,
2009-04-04, 00:46:05,VALID,1009.37,VALID,0,VALID,85.7211,VALID,0,VALID,22.5835,VALID,336,VALID,1.07266,
2009-04-04, 00:47:05,VALID,1009.29,VALID,0,VALID,85.7211,VALID,0.105969,VALID,22.5818,VALID,8,VALID,0.941797,
2009-04-04, 00:48:05,VALID,1009.25,VALID,0,VALID,85.7211,VALID,0,VALID,22.564,VALID,30,VALID,0.744531,
2009-04-04, 00:49:05,VALID,1009.17,VALID,0,VALID,85.7363,VALID,0.105969,VALID,22.564,VALID,44,VALID,0.525,
2009-04-04, 00:50:05,VALID,1009.07,VALID,0,VALID,85.7211,VALID,0,VALID,22.5234,VALID,349,VALID,0.478125,
2009-04-04, 00:51:05,VALID,1008.96,VALID,0,VALID,85.7287,VALID,0,VALID,22.5251,VALID,87,VALID,0.683203,
2009-04-04, 00:52:05,VALID,1008.92,VALID,0,VALID,85.744,VALID,0,VALID,22.4667,VALID,70,VALID,0.962109,
2009-04-04, 00:53:05,VALID,1008.96,VALID,0,VALID,85.744,VALID,0,VALID,22.4277,VALID,22,VALID,0.700391,
2009-04-04, 00:54:05,VALID,1008.95,VALID,0,VALID,85.7592,VALID,0,VALID,22.465,VALID,2,VALID,0.709766,
2009-04-04, 00:55:05,VALID,1008.96,VALID,0,VALID,85.7592,VALID,0,VALID,22.4667,VALID,3,VALID,0.423438,
2009-04-04, 00:56:05,VALID,1009,VALID,0,VALID,85.7516,VALID,0,VALID,22.5056,VALID,15,VALID,0.221875,
2009-04-04, 00:57:05,VALID,1009.03,VALID,0,VALID,85.7516,VALID,0,VALID,22.465,VALID,68,VALID,0.4,
2009-04-04, 00:58:05,VALID,1009.06,VALID,0,VALID,85.7516,VALID,0,VALID,22.465,VALID,77,VALID,0.376563,
2009-04-04, 00:59:05,VALID,1009.11,VALID,0,VALID,85.7592,VALID,0.105969,VALID,22.4065,VALID,316,VALID,0.439063,
2009-04-04, 01:00:05,VALID,1009.22,VALID,0,VALID,85.7745,VALID,0,VALID,22.4472,VALID,317,VALID,0.594922,
2009-04-04, 01:01:05,VALID,1009.28,VALID,0,VALID,85.7592,VALID,0.105969,VALID,22.4861,VALID,310,VALID,0.526563,
2009-04-04, 01:02:05,VALID,1009.32,VALID,0,VALID,85.7592,VALID,0,VALID,22.5056,VALID,289,VALID,0.76875,
2009-04-04, 01:03:05,VALID,1009.32,VALID,0,VALID,85.7592,VALID,0,VALID,22.5251,VALID,284,VALID,0.349219,
2009-04-04, 01:04:05,VALID,1009.35,VALID,0.5,VALID,85.744,VALID,0,VALID,22.5446,VALID,298,VALID,0.343359,
2009-04-04, 01:05:05,VALID,1009.39,VALID,0,VALID,85.7516,VALID,0.105969,VALID,22.5446,VALID,308,VALID,0.858203,
2009-04-04, 01:06:05,VALID,1009.42,VALID,0,VALID,85.7668,VALID,0,VALID,22.5039,VALID,315,VALID,0.727344,
2009-04-04, 01:07:05,VALID,1009.45,VALID,0,VALID,85.7516,VALID,0,VALID,22.5251,VALID,307,VALID,0.905469,
2009-04-04, 01:08:05,VALID,1009.45,VALID,0,VALID,85.7745,VALID,0,VALID,22.5039,VALID,300,VALID,0.726172,
2009-04-04, 01:09:05,VALID,1009.48,VALID,0,VALID,85.7516,VALID,0,VALID,22.5234,VALID,298,VALID,0.900391,
2009-04-04, 01:10:05,VALID,1009.45,VALID,0,VALID,85.7592,VALID,0,VALID,22.564,VALID,298,VALID,0.815234,
2009-04-04, 01:11:05,VALID,1009.44,VALID,0,VALID,85.7592,VALID,0.105969,VALID,22.5234,VALID,307,VALID,0.919531,
2009-04-04, 01:12:05,VALID,1009.45,VALID,0,VALID,85.744,VALID,0,VALID,22.5623,VALID,291,VALID,0.0808594,
2009-04-04, 01:13:05,VALID,1009.45,VALID,0.5,VALID,85.7516,VALID,0,VALID,22.603,VALID,296,VALID,0.827734,
2009-04-04, 01:14:05,VALID,1009.46,VALID,0,VALID,85.7516,VALID,0.105969,VALID,22.5606,VALID,310,VALID,0.907031,
2009-04-04, 01:15:05,VALID,1009.47,VALID,0,VALID,85.7592,VALID,0.211938,VALID,22.6013,VALID,320,VALID,0.551953,
2009-04-04, 01:16:05,VALID,1009.5,VALID,0,VALID,85.7745,VALID,0.105969,VALID,22.5606,VALID,313,VALID,0.426562,
2009-04-04, 01:17:05,VALID,1009.51,VALID,0,VALID,85.7287,VALID,0.105969,VALID,22.5996,VALID,313,VALID,0.3125,
2009-04-04, 01:18:05,VALID,1009.5,VALID,0,VALID,85.7592,VALID,0.105969,VALID,22.6208,VALID,30,VALID,0.113281,
2009-04-04, 01:19:05,VALID,1009.49,VALID,0.5,VALID,85.7592,VALID,0,VALID,22.6402,VALID,30,VALID,0,
2009-04-04, 01:20:05,VALID,1009.49,VALID,0,VALID,85.7516,VALID,0.105969,VALID,22.6597,VALID,34,VALID,0.253906,
2009-04-04, 01:21:05,VALID,1009.54,VALID,0,VALID,85.7516,VALID,0.211938,VALID,22.6792,VALID,134,VALID,0.451172,
2009-04-04, 01:22:05,VALID,1009.59,VALID,0,VALID,85.7516,VALID,0.105969,VALID,22.6792,VALID,149,VALID,1.28672,
2009-04-04, 01:23:05,VALID,1009.63,VALID,0,VALID,85.7592,VALID,0.105969,VALID,22.7164,VALID,145,VALID,1.28711,
2009-04-04, 01:24:05,VALID,1009.71,VALID,0.5,VALID,85.7363,VALID,0.105969,VALID,22.7571,VALID,150,VALID,1.52695,
2009-04-04, 01:25:05,VALID,1009.76,VALID,0,VALID,85.7363,VALID,0.105969,VALID,22.7164,VALID,136,VALID,1.37812,
2009-04-04, 01:26:05,VALID,1009.83,VALID,0,VALID,85.7592,VALID,0.105969,VALID,22.697,VALID,144,VALID,1.34648,
2009-04-04, 01:27:05,VALID,1009.9,VALID,0,VALID,85.7516,VALID,0.105969,VALID,22.7182,VALID,156,VALID,1.36563,
2009-04-04, 01:28:05,VALID,1009.94,VALID,0,VALID,85.7592,VALID,0.105969,VALID,22.6987,VALID,132,VALID,1.23555,
2009-04-04, 01:29:05,VALID,1010.03,VALID,0.5,VALID,85.7668,VALID,0,VALID,22.6614,VALID,155,VALID,1.54453,
2009-04-04, 01:30:05,VALID,1010.1,VALID,0,VALID,85.7745,VALID,0,VALID,22.7021,VALID,168,VALID,1.39063,
2009-04-04, 01:31:05,VALID,1010.16,VALID,0,VALID,85.7516,VALID,0,VALID,22.6597,VALID,130,VALID,0.922656,
2009-04-04, 01:32:05,VALID,1010.29,VALID,0,VALID,85.7745,VALID,0,VALID,22.6809,VALID,114,VALID,1.12148,
2009-04-04, 01:33:05,VALID,1010.34,VALID,0,VALID,85.7745,VALID,0,VALID,22.642,VALID,135,VALID,1.60117,
2009-04-04, 01:34:05,VALID,1010.41,VALID,0,VALID,85.7516,VALID,0,VALID,22.6809,VALID,128,VALID,0.998828,
2009-04-04, 01:35:05,VALID,1010.42,VALID,0.5,VALID,85.7821,VALID,0,VALID,22.6809,VALID,116,VALID,0.953906,
2009-04-04, 01:36:05,VALID,1010.42,VALID,0,VALID,85.7592,VALID,0,VALID,22.642,VALID,130,VALID,1.82383,
2009-04-04, 01:37:05,VALID,1010.45,VALID,0,VALID,85.7821,VALID,0,VALID,22.6437,VALID,123,VALID,1.61367,
2009-04-04, 01:38:05,VALID,1010.43,VALID,0,VALID,85.7821,VALID,0,VALID,22.603,VALID,121,VALID,1.61406,
2009-04-04, 01:39:05,VALID,1010.44,VALID,0,VALID,85.7821,VALID,0,VALID,22.603,VALID,146,VALID,1.76055,
2009-04-04, 01:40:05,VALID,1010.42,VALID,0,VALID,85.7821,VALID,0,VALID,22.603,VALID,135,VALID,1.42148,
2009-04-04, 01:41:05,VALID,1010.42,VALID,0,VALID,85.7897,VALID,0,VALID,22.6225,VALID,132,VALID,1.54727,
2009-04-04, 01:42:05,VALID,1010.41,VALID,0,VALID,85.7974,VALID,0,VALID,22.6225,VALID,140,VALID,1.5168,
2009-04-04, 01:43:05,VALID,1010.39,VALID,0.5,VALID,85.7897,VALID,0,VALID,22.642,VALID,157,VALID,1.09063,
2009-04-04, 01:44:05,VALID,1010.37,VALID,0,VALID,85.7745,VALID,0,VALID,22.6208,VALID,149,VALID,0.920703,
2009-04-04, 01:45:05,VALID,1010.35,VALID,0,VALID,85.7897,VALID,0,VALID,22.6208,VALID,175,VALID,0.871094,
2009-04-04, 01:46:05,VALID,1010.33,VALID,0,VALID,85.8126,VALID,0.105969,VALID,22.5818,VALID,155,VALID,0.905859,
2009-04-04, 01:47:05,VALID,1010.31,VALID,0,VALID,85.8126,VALID,0.105969,VALID,22.6013,VALID,196,VALID,1.38906,
2009-04-04, 01:48:05,VALID,1010.27,VALID,0,VALID,85.7974,VALID,0.105969,VALID,22.6013,VALID,147,VALID,0.779297,
2009-04-04, 01:49:05,VALID,1010.29,VALID,0,VALID,85.7821,VALID,0,VALID,22.6208,VALID,132,VALID,0.996094,
2009-04-04, 01:50:05,VALID,1010.26,VALID,0,VALID,85.7974,VALID,0.105969,VALID,22.6597,VALID,140,VALID,1.12031,
2009-04-04, 01:51:05,VALID,1010.16,VALID,0,VALID,85.805,VALID,0,VALID,22.6597,VALID,179,VALID,2.21602,
2009-04-04, 01:52:05,VALID,1010.21,VALID,0.5,VALID,85.8279,VALID,0.105969,VALID,22.5056,VALID,148,VALID,2.20859,
2009-04-04, 01:53:05,VALID,1010.2,VALID,0,VALID,85.8431,VALID,0,VALID,22.4065,VALID,152,VALID,2.51758,
2009-04-04, 01:54:05,VALID,1010.23,VALID,0,VALID,85.8431,VALID,0,VALID,22.4065,VALID,135,VALID,1.66055,
2009-04-04, 01:55:05,VALID,1010.22,VALID,0,VALID,85.8507,VALID,0,VALID,22.387,VALID,136,VALID,1.46914,
2009-04-04, 01:56:05,VALID,1010.19,VALID,0,VALID,85.866,VALID,0.105969,VALID,22.387,VALID,154,VALID,2.08867,
2009-04-04, 01:57:05,VALID,1010.23,VALID,0,VALID,85.866,VALID,0,VALID,22.3481,VALID,157,VALID,2.1125,
2009-04-04, 01:58:05,VALID,1010.21,VALID,0,VALID,85.8736,VALID,0,VALID,22.3481,VALID,227,VALID,0.569141,
2009-04-04, 01:59:05,VALID,1010.23,VALID,0.5,VALID,85.866,VALID,0,VALID,22.3108,VALID,152,VALID,2.34141,
2009-04-04, 02:00:05,VALID,1010.23,VALID,0,VALID,85.8965,VALID,0,VALID,22.2914,VALID,184,VALID,1.76836,
2009-04-04, 02:01:05,VALID,1010.24,VALID,0,VALID,85.8965,VALID,0,VALID,22.2914,VALID,160,VALID,1.21172,
2009-04-04, 02:02:05,VALID,1010.26,VALID,0,VALID,85.866,VALID,0,VALID,22.3108,VALID,166,VALID,1.21875,
2009-04-04, 02:03:05,VALID,1010.23,VALID,0,VALID,85.8812,VALID,0,VALID,22.2914,VALID,177,VALID,1.73633,
2009-04-04, 02:04:05,VALID,1010.24,VALID,0,VALID,85.8965,VALID,0,VALID,22.2719,VALID,156,VALID,1.57539,
2009-04-04, 02:05:05,VALID,1010.23,VALID,0.5,VALID,85.8965,VALID,0,VALID,22.2719,VALID,166,VALID,1.26875,
2009-04-04, 02:06:05,VALID,1010.23,VALID,0,VALID,85.8812,VALID,0,VALID,22.2914,VALID,145,VALID,0.557422,
2009-04-04, 02:07:05,VALID,1010.22,VALID,0,VALID,85.8965,VALID,0,VALID,22.2524,VALID,126,VALID,1.45195,
2009-04-04, 02:08:05,VALID,1010.26,VALID,0,VALID,85.8812,VALID,0,VALID,22.2719,VALID,159,VALID,1.38203,
2009-04-04, 02:09:05,VALID,1010.32,VALID,0,VALID,85.8889,VALID,0,VALID,22.2719,VALID,103,VALID,1.12734,
2009-04-04, 02:10:05,VALID,1010.36,VALID,0.5,VALID,85.8965,VALID,0,VALID,22.3108,VALID,184,VALID,1.12344,
2009-04-04, 02:11:05,VALID,1010.38,VALID,0,VALID,85.9117,VALID,0,VALID,22.2329,VALID,113,VALID,0.833203,
2009-04-04, 02:12:05,VALID,1010.42,VALID,0,VALID,85.9117,VALID,0,VALID,22.2524,VALID,124,VALID,1.17773,
2009-04-04, 02:13:05,VALID,1010.42,VALID,0,VALID,85.9041,VALID,0,VALID,22.2524,VALID,167,VALID,1.81211,
2009-04-04, 02:14:05,VALID,1010.45,VALID,0.5,VALID,85.9117,VALID,0,VALID,22.194,VALID,165,VALID,0.998438,
2009-04-04, 02:15:05,VALID,1010.46,VALID,0,VALID,85.9346,VALID,0,VALID,22.1745,VALID,144,VALID,1.38516,
2009-04-04, 02:16:05,VALID,1010.44,VALID,0,VALID,85.927,VALID,0,VALID,22.155,VALID,152,VALID,1.59336,
2009-04-04, 02:17:05,VALID,1010.47,VALID,0,VALID,85.9194,VALID,0,VALID,22.155,VALID,173,VALID,1.3625,
2009-04-04, 02:18:05,VALID,1010.45,VALID,0.5,VALID,85.9117,VALID,0,VALID,22.2134,VALID,202,VALID,0.539844,
2009-04-04, 02:19:05,VALID,1010.42,VALID,0,VALID,85.9194,VALID,0,VALID,22.194,VALID,198,VALID,1.48203,
2009-04-04, 02:20:05,VALID,1010.38,VALID,0,VALID,85.927,VALID,0,VALID,22.155,VALID,180,VALID,1.62188,
2009-04-04, 02:21:05,VALID,1010.35,VALID,0,VALID,85.9346,VALID,0,VALID,22.0966,VALID,187,VALID,2.14883,
2009-04-04, 02:22:05,VALID,1010.32,VALID,0.5,VALID,85.9575,VALID,0,VALID,22.1177,VALID,181,VALID,1.91211,
2009-04-04, 02:23:05,VALID,1010.28,VALID,0,VALID,85.9575,VALID,0,VALID,22.0771,VALID,173,VALID,2.10391,
2009-04-04, 02:24:05,VALID,1010.27,VALID,0,VALID,85.9422,VALID,0,VALID,22.0771,VALID,176,VALID,1.72734,
2009-04-04, 02:25:05,VALID,1010.24,VALID,0,VALID,85.9651,VALID,0,VALID,22.0771,VALID,198,VALID,2.70508,
2009-04-04, 02:26:05,VALID,1010.22,VALID,0.5,VALID,85.9575,VALID,0,VALID,22.0771,VALID,174,VALID,1.79062,
2009-04-04, 02:27:05,VALID,1010.26,VALID,0,VALID,85.9499,VALID,0,VALID,22.1161,VALID,198,VALID,1.96563,
2009-04-04, 02:28:05,VALID,1010.23,VALID,0,VALID,85.9575,VALID,0,VALID,22.0771,VALID,165,VALID,2.04375,
2009-04-04, 02:29:05,VALID,1010.23,VALID,0,VALID,85.9727,VALID,0,VALID,22.0966,VALID,183,VALID,1.64258,
2009-04-04, 02:30:05,VALID,1010.22,VALID,0,VALID,85.9651,VALID,0,VALID,22.0966,VALID,185,VALID,1.19492,
2009-04-04, 02:31:05,VALID,1010.23,VALID,0,VALID,85.9651,VALID,0,VALID,22.0966,VALID,194,VALID,1.09414,
2009-04-04, 02:32:05,VALID,1010.21,VALID,0.5,VALID,85.9804,VALID,0,VALID,22.0966,VALID,179,VALID,1.27656,
2009-04-04, 02:33:05,VALID,1010.18,VALID,0,VALID,85.9651,VALID,0,VALID,22.1161,VALID,216,VALID,0.49375,
2009-04-04, 02:34:05,VALID,1010.19,VALID,0,VALID,85.9575,VALID,0,VALID,22.0966,VALID,194,VALID,0.981641,
2009-04-04, 02:35:05,VALID,1010.18,VALID,0,VALID,85.9651,VALID,0,VALID,22.1161,VALID,176,VALID,0.798047,
2009-04-04, 02:36:05,VALID,1010.2,VALID,0,VALID,85.9651,VALID,0,VALID,22.056,VALID,188,VALID,1.17188,
2009-04-04, 02:37:05,VALID,1010.2,VALID,0,VALID,85.9651,VALID,0,VALID,22.0966,VALID,181,VALID,0.558594,
2009-04-04, 02:38:05,VALID,1010.21,VALID,0,VALID,85.9499,VALID,0,VALID,22.0966,VALID,205,VALID,1.3125,
2009-04-04, 02:39:05,VALID,1010.2,VALID,0.5,VALID,85.9651,VALID,0,VALID,22.056,VALID,160,VALID,1.07227,
2009-04-04, 02:40:05,VALID,1010.16,VALID,0,VALID,85.9651,VALID,0,VALID,22.056,VALID,209,VALID,0.262109,
2009-04-04, 02:41:05,VALID,1010.18,VALID,0,VALID,85.9422,VALID,0.105969,VALID,22.0754,VALID,209,VALID,0,
2009-04-04, 02:42:05,VALID,1010.15,VALID,0,VALID,85.9575,VALID,0,VALID,22.0771,VALID,159,VALID,0.638672,
2009-04-04, 02:43:05,VALID,1010.16,VALID,0,VALID,85.9575,VALID,0,VALID,22.0771,VALID,167,VALID,1.17383,
2009-04-04, 02:44:05,VALID,1010.15,VALID,0,VALID,85.9422,VALID,0,VALID,22.0771,VALID,190,VALID,0.740625,
2009-04-04, 02:45:05,VALID,1010.1,VALID,0,VALID,85.9499,VALID,0,VALID,22.0966,VALID,245,VALID,0.54375,
2009-04-04, 02:46:05,VALID,1010.1,VALID,0.5,VALID,85.9575,VALID,0,VALID,22.0771,VALID,220,VALID,0.595312,
2009-04-04, 02:47:05,VALID,1010.06,VALID,0,VALID,85.9499,VALID,0,VALID,22.0754,VALID,197,VALID,1.17109,
2009-04-04, 02:48:05,VALID,1010.02,VALID,0,VALID,85.9499,VALID,0,VALID,22.1161,VALID,212,VALID,0.657812,
2009-04-04, 02:49:05,VALID,1010.02,VALID,0,VALID,85.9727,VALID,0,VALID,22.1161,VALID,182,VALID,1.22695,
2009-04-04, 02:50:05,VALID,1010.01,VALID,0,VALID,85.9575,VALID,0,VALID,22.1161,VALID,254,VALID,0.534766,
2009-04-04, 02:51:05,VALID,1009.98,VALID,0,VALID,85.9651,VALID,0,VALID,22.1161,VALID,195,VALID,0.659375,
2009-04-04, 02:52:05,VALID,1009.96,VALID,0,VALID,85.9651,VALID,0,VALID,22.1161,VALID,303,VALID,0.621094,
2009-04-04, 02:53:05,VALID,1010,VALID,0,VALID,85.9499,VALID,0,VALID,22.1355,VALID,229,VALID,1.17969,
2009-04-04, 02:54:05,VALID,1010.06,VALID,0.5,VALID,85.9804,VALID,0,VALID,22.1161,VALID,228,VALID,0.541016,
2009-04-04, 02:55:05,VALID,1010.11,VALID,0,VALID,85.9651,VALID,0,VALID,22.1355,VALID,210,VALID,0.307031,
2009-04-04, 02:56:05,VALID,1010.12,VALID,0,VALID,85.9727,VALID,0,VALID,22.1745,VALID,188,VALID,0.525781,
2009-04-04, 02:57:05,VALID,1010.16,VALID,0,VALID,85.9651,VALID,0,VALID,22.1745,VALID,152,VALID,0.839844,
2009-04-04, 02:58:05,VALID,1010.16,VALID,0,VALID,85.9651,VALID,0,VALID,22.1355,VALID,155,VALID,0.212891,
2009-04-04, 02:59:05,VALID,1010.16,VALID,0,VALID,85.9727,VALID,0,VALID,22.194,VALID,246,VALID,0.436719,
2009-04-04, 03:00:05,VALID,1010.14,VALID,0,VALID,85.9651,VALID,0,VALID,22.194,VALID,249,VALID,0.00117188,
2009-04-04, 03:01:05,VALID,1010.14,VALID,0,VALID,85.9651,VALID,0,VALID,22.1923,VALID,249,VALID,0.0882813,
2009-04-04, 03:02:05,VALID,1010.15,VALID,0,VALID,85.9651,VALID,0,VALID,22.2329,VALID,256,VALID,0.0652344,
2009-04-04, 03:03:05,VALID,1010.16,VALID,0,VALID,85.9651,VALID,0,VALID,22.2329,VALID,275,VALID,0.0261719,
2009-04-04, 03:04:05,VALID,1010.19,VALID,0.5,VALID,85.9422,VALID,0,VALID,22.2329,VALID,320,VALID,0.566016,
2009-04-04, 03:05:05,VALID,1010.2,VALID,0,VALID,85.9727,VALID,0,VALID,22.2118,VALID,326,VALID,0.352734,
2009-04-04, 03:06:05,VALID,1010.24,VALID,0,VALID,85.9727,VALID,0,VALID,22.2329,VALID,360,VALID,0.462109,
2009-04-04, 03:07:05,VALID,1010.26,VALID,0,VALID,85.9651,VALID,0,VALID,22.2329,VALID,20,VALID,0.879687,
2009-04-04, 03:08:05,VALID,1010.28,VALID,0,VALID,85.988,VALID,0,VALID,22.2329,VALID,17,VALID,0.641406,
2009-04-04, 03:09:05,VALID,1010.25,VALID,0,VALID,85.9575,VALID,0,VALID,22.2329,VALID,13,VALID,0.468359,
2009-04-04, 03:10:05,VALID,1010.24,VALID,0,VALID,85.9727,VALID,0,VALID,22.2134,VALID,351,VALID,0.137109,
2009-04-04, 03:11:05,VALID,1010.22,VALID,0,VALID,85.9804,VALID,0,VALID,22.2134,VALID,351,VALID,0,
2009-04-04, 03:12:05,VALID,1010.22,VALID,0,VALID,85.9804,VALID,0,VALID,22.2134,VALID,351,VALID,0,
2009-04-04, 03:13:05,VALID,1010.19,VALID,0,VALID,85.9727,VALID,0,VALID,22.2134,VALID,351,VALID,0,
2009-04-04, 03:14:05,VALID,1010.17,VALID,0,VALID,85.9804,VALID,0,VALID,22.2329,VALID,351,VALID,0,
2009-04-04, 03:15:05,VALID,1010.18,VALID,0,VALID,85.9804,VALID,0,VALID,22.2524,VALID,348,VALID,0,
2009-04-04, 03:16:05,VALID,1010.16,VALID,0,VALID,85.9727,VALID,0,VALID,22.2719,VALID,348,VALID,0,
2009-04-04, 03:17:04,VALID,1010.13,VALID,0,VALID,85.988,VALID,0,VALID,22.2719,VALID,271,VALID,0,
2009-04-04, 03:18:04,VALID,1010.12,VALID,0.5,VALID,85.9651,VALID,0,VALID,22.2914,VALID,259,VALID,0,
2009-04-04, 03:19:04,VALID,1010.09,VALID,0,VALID,85.9727,VALID,0,VALID,22.2719,VALID,259,VALID,0,
2009-04-04, 03:20:04,VALID,1010.06,VALID,0,VALID,85.9651,VALID,0,VALID,22.2719,VALID,259,VALID,0,
2009-04-04, 03:21:04,VALID,1010.03,VALID,0,VALID,85.9651,VALID,0,VALID,22.2914,VALID,259,VALID,0,
2009-04-04, 03:22:04,VALID,1010.02,VALID,0,VALID,85.9727,VALID,0,VALID,22.332,VALID,259,VALID,0,
2009-04-04, 03:23:04,VALID,1010,VALID,0,VALID,85.9727,VALID,0,VALID,22.2914,VALID,274,VALID,0,
2009-04-04, 03:24:04,VALID,1009.99,VALID,0,VALID,85.9956,VALID,0,VALID,22.2719,VALID,286,VALID,0,
2009-04-04, 03:25:04,VALID,1009.97,VALID,0,VALID,85.9804,VALID,0,VALID,22.2719,VALID,286,VALID,0.621484,
2009-04-04, 03:26:04,VALID,1009.95,VALID,0,VALID,86.0033,VALID,0,VALID,22.2719,VALID,266,VALID,0.655078,
2009-04-04, 03:27:04,VALID,1009.93,VALID,0,VALID,85.988,VALID,0,VALID,22.2507,VALID,267,VALID,0.317187,
2009-04-04, 03:28:04,VALID,1009.9,VALID,0,VALID,85.9727,VALID,0,VALID,22.2507,VALID,309,VALID,0.144141,
2009-04-04, 03:29:04,VALID,1009.87,VALID,0,VALID,85.9956,VALID,0,VALID,22.2719,VALID,309,VALID,0,
2009-04-04, 03:30:04,VALID,1009.84,VALID,0,VALID,85.9651,VALID,0,VALID,22.2914,VALID,309,VALID,0,
2009-04-04, 03:31:04,VALID,1009.84,VALID,0,VALID,85.9651,VALID,0,VALID,22.3108,VALID,250,VALID,0,
2009-04-04, 03:32:04,VALID,1009.84,VALID,0,VALID,85.9727,VALID,0,VALID,22.2914,VALID,250,VALID,0,
2009-04-04, 03:33:04,VALID,1009.82,VALID,0,VALID,85.9804,VALID,0,VALID,22.2914,VALID,250,VALID,0,
2009-04-04, 03:34:04,VALID,1009.78,VALID,0.5,VALID,85.9727,VALID,0,VALID,22.3108,VALID,250,VALID,0,
2009-04-04, 03:35:04,VALID,1009.73,VALID,0,VALID,85.9804,VALID,0,VALID,22.2914,VALID,250,VALID,0,
2009-04-04, 03:36:04,VALID,1009.68,VALID,0,VALID,85.9727,VALID,0,VALID,22.2524,VALID,227,VALID,0,
2009-04-04, 03:37:04,VALID,1009.67,VALID,0,VALID,86.0109,VALID,0,VALID,22.2329,VALID,229,VALID,0,
2009-04-04, 03:38:04,VALID,1009.62,VALID,0,VALID,85.9727,VALID,0,VALID,22.2118,VALID,230,VALID,0.199219,
2009-04-04, 03:39:04,VALID,1009.59,VALID,0,VALID,85.9956,VALID,0,VALID,22.2329,VALID,230,VALID,0,
2009-04-04, 03:40:04,VALID,1009.58,VALID,0,VALID,86.0033,VALID,0,VALID,22.2524,VALID,230,VALID,0,
2009-04-04, 03:41:04,VALID,1009.56,VALID,0,VALID,85.9804,VALID,0,VALID,22.2719,VALID,230,VALID,0,
2009-04-04, 03:42:04,VALID,1009.53,VALID,0,VALID,85.9956,VALID,0,VALID,22.2914,VALID,230,VALID,0,
2009-04-04, 03:43:04,VALID,1009.51,VALID,0,VALID,85.9956,VALID,0,VALID,22.2914,VALID,226,VALID,0,
2009-04-04, 03:44:04,VALID,1009.46,VALID,0,VALID,86.0033,VALID,0,VALID,22.2914,VALID,228,VALID,0.681641,